When you browse on this site, cookies collect data to enhance your experience and personalize the content and advertising you see.
Visit our Privacy Policy to learn more. By continuing to use the site, you agree to this use of cookies and data.
  • In Switzerland
  • List of Countries
  • For 7 days
  • Water Temperature
  • Satellite Maps
  • Weather Map
  • Weather Widgets
  • user-avatar
    Login

    Hourly Weather Plavs'ke

    Today, 21 February, Thursday

    Time Temperature Precipitation Wind Pressure Humidity
    00:00 +4°C° 0 mm 3 mps 759 mmHg 91%
    01:00 +4°C° 0 mm 3 mps 759 mmHg 91%
    02:00 +4°C° 0 mm 3 mps 759 mmHg 92%
    03:00 +3°C° 0 mm 3 mps 759 mmHg 91%
    04:00 +3°C° 0 mm 3 mps 759 mmHg 91%
    05:00 +1°C° 0 mm 4 mps 759 mmHg 90%
    06:00 +1°C° 0 mm 4 mps 759 mmHg 87%
    07:00 +1°C° 0 mm 5 mps 759 mmHg 83%
    08:00 +2°C° 0 mm 5 mps 760 mmHg 80%
    09:00 +3°C° 0 mm 6 mps 760 mmHg 70%
    10:00 +5°C° 0 mm 7 mps 760 mmHg 61%
    11:00 +6°C° 0 mm 8 mps 760 mmHg 52%
    12:00 +6°C° 0 mm 8 mps 760 mmHg 51%
    13:00 +6°C° 0 mm 8 mps 759 mmHg 50%
    14:00 +6°C° 0 mm 9 mps 759 mmHg 49%
    15:00 +5°C° 0 mm 8 mps 760 mmHg 49%
    16:00 +4°C° 0 mm 7 mps 760 mmHg 49%
    17:00 +3°C° 0 mm 6 mps 760 mmHg 49%
    18:00 +2°C° 0 mm 5 mps 760 mmHg 52%
    19:00 +1°C° 0 mm 4 mps 761 mmHg 55%
    20:00 0°C° 0 mm 4 mps 761 mmHg 59%
    21:00 +1°C° 0 mm 3 mps 762 mmHg 60%
    22:00 +1°C° 0 mm 3 mps 762 mmHg 62%
    23:00 +1°C° 0 mm 2 mps 762 mmHg 64%

    Tomorrow, 22 February, Friday

    Time Temperature Precipitation Wind Pressure Humidity
    00:00 0°C° 0 mm 3 mps 762 mmHg 65%
    01:00 0°C° 0 mm 3 mps 762 mmHg 67%
    02:00 -1°C° 0 mm 3 mps 762 mmHg 68%
    03:00 -1°C° 0 mm 2 mps 762 mmHg 69%
    04:00 -1°C° 0 mm 2 mps 761 mmHg 70%
    05:00 -2°C° 0 mm 2 mps 761 mmHg 71%
    06:00 +1°C° 0 mm 1 mps 761 mmHg 68%
    07:00 +1°C° 0 mm 1 mps 761 mmHg 65%
    08:00 +1°C° 0 mm 1 mps 761 mmHg 62%
    09:00 +2°C° 0.1 mm 1 mps 761 mmHg 63%
    10:00 +1°C° 0.1 mm 2 mps 761 mmHg 64%
    11:00 +1°C° 0.1 mm 2 mps 761 mmHg 64%
    12:00 -1°C° 0.7 mm 3 mps 760 mmHg 72%
    13:00 -2°C° 0.7 mm 4 mps 760 mmHg 80%
    14:00 -3°C° 0.7 mm 4 mps 760 mmHg 89%
    15:00 -5°C° 0.7 mm 5 mps 759 mmHg 89%
    16:00 -5°C° 0.7 mm 6 mps 759 mmHg 90%
    17:00 -6°C° 0.7 mm 6 mps 759 mmHg 91%
    18:00 -7°C° 1 mm 7 mps 759 mmHg 91%
    19:00 -8°C° 1 mm 8 mps 759 mmHg 92%
    20:00 -9°C° 1 mm 9 mps 760 mmHg 92%
    21:00 -10°C° 0.8 mm 9 mps 760 mmHg 91%
    22:00 -10°C° 0.8 mm 9 mps 760 mmHg 90%
    23:00 -11°C° 0.8 mm 9 mps 761 mmHg 89%

    Day after tomorrow, 23 February, Saturday

    Time Temperature Precipitation Wind Pressure Humidity
    00:00 -11°C° 0.4 mm 9 mps 761 mmHg 88%
    01:00 -11°C° 0.4 mm 8 mps 761 mmHg 87%
    02:00 -12°C° 0.4 mm 8 mps 762 mmHg 86%
    03:00 -12°C° 0.2 mm 8 mps 762 mmHg 85%
    04:00 -12°C° 0.2 mm 8 mps 762 mmHg 83%
    05:00 -12°C° 0.2 mm 7 mps 763 mmHg 81%
    06:00 -12°C° 0 mm 7 mps 763 mmHg 80%
    07:00 -12°C° 0 mm 8 mps 764 mmHg 79%
    08:00 -12°C° 0 mm 8 mps 764 mmHg 78%
    09:00 -12°C° 0 mm 8 mps 765 mmHg 76%
    10:00 -11°C° 0 mm 7 mps 765 mmHg 75%
    11:00 -9°C° 0 mm 7 mps 765 mmHg 73%
    12:00 -9°C° 0 mm 7 mps 766 mmHg 73%
    13:00 -8°C° 0 mm 7 mps 766 mmHg 72%
    14:00 -8°C° 0 mm 6 mps 766 mmHg 71%
    15:00 -9°C° 0 mm 6 mps 766 mmHg 73%
    16:00 -8°C° 0 mm 5 mps 767 mmHg 75%
    17:00 -9°C° 0 mm 4 mps 767 mmHg 77%
    18:00 -9°C° 0 mm 4 mps 767 mmHg 78%
    19:00 -11°C° 0 mm 5 mps 768 mmHg 79%
    20:00 -11°C° 0 mm 5 mps 768 mmHg 80%
    21:00 -11°C° 0 mm 5 mps 768 mmHg 82%
    22:00 -11°C° 0 mm 4 mps 768 mmHg 83%
    23:00 -11°C° 0 mm 4 mps 769 mmHg 85%

    24 February, Sunday

    Time Temperature Precipitation Wind Pressure Humidity
    00:00 -11°C° 0 mm 4 mps 769 mmHg 85%
    01:00 -11°C° 0 mm 4 mps 769 mmHg 86%
    02:00 -11°C° 0 mm 4 mps 769 mmHg 87%
    03:00 -12°C° 0 mm 4 mps 769 mmHg 87%
    04:00 -12°C° 0 mm 4 mps 768 mmHg 87%
    05:00 -12°C° 0 mm 4 mps 768 mmHg 88%
    06:00 -11°C° 0 mm 4 mps 769 mmHg 87%
    07:00 -10°C° 0 mm 4 mps 769 mmHg 86%
    08:00 -10°C° 0 mm 4 mps 769 mmHg 85%
    09:00 -9°C° 0 mm 4 mps 769 mmHg 84%
    10:00 -8°C° 0 mm 4 mps 769 mmHg 83%
    11:00 -6°C° 0 mm 3 mps 769 mmHg 81%
    12:00 -6°C° 0 mm 3 mps 769 mmHg 81%
    13:00 -6°C° 0 mm 3 mps 769 mmHg 80%
    14:00 -5°C° 0 mm 3 mps 768 mmHg 80%
    15:00 -6°C° 0 mm 3 mps 768 mmHg 81%
    16:00 -6°C° 0 mm 3 mps 768 mmHg 83%
    17:00 -5°C° 0 mm 2 mps 768 mmHg 85%
    18:00 -6°C° 0 mm 2 mps 768 mmHg 86%
    19:00 -6°C° 0 mm 2 mps 768 mmHg 87%
    20:00 -7°C° 0 mm 2 mps 768 mmHg 89%
    21:00 -7°C° 0 mm 2 mps 768 mmHg 89%
    22:00 -7°C° 0 mm 2 mps 768 mmHg 89%
    23:00 -8°C° 0 mm 2 mps 768 mmHg 90%

    25 February, Monday

    Time Temperature Precipitation Wind Pressure Humidity
    00:00 -8°C° 0 mm 2 mps 768 mmHg 90%
    01:00 -8°C° 0 mm 2 mps 767 mmHg 90%
    02:00 -10°C° 0 mm 3 mps 767 mmHg 91%
    03:00 -9°C° 0 mm 2 mps 767 mmHg 91%
    04:00 -9°C° 0 mm 2 mps 766 mmHg 92%
    05:00 -9°C° 0 mm 2 mps 766 mmHg 92%
    06:00 -9°C° 0 mm 2 mps 766 mmHg 92%
    07:00 -9°C° 0 mm 2 mps 766 mmHg 92%
    08:00 -9°C° 0 mm 2 mps 766 mmHg 92%
    09:00 -8°C° 0 mm 2 mps 765 mmHg 88%
    10:00 -7°C° 0 mm 2 mps 765 mmHg 84%
    11:00 -6°C° 0 mm 2 mps 765 mmHg 80%
    12:00 -5°C° 0 mm 2 mps 764 mmHg 79%
    13:00 -6°C° 0 mm 3 mps 764 mmHg 78%
    14:00 -5°C° 0 mm 3 mps 763 mmHg 77%
    15:00 -5°C° 0 mm 2 mps 763 mmHg 79%
    16:00 -5°C° 0 mm 2 mps 762 mmHg 82%
    17:00 -5°C° 0 mm 2 mps 762 mmHg 85%
    18:00 -6°C° 0 mm 2 mps 762 mmHg 86%
    19:00 -7°C° 0 mm 2 mps 761 mmHg 87%
    20:00 -7°C° 0 mm 2 mps 761 mmHg 88%
    21:00 -8°C° 0 mm 2 mps 761 mmHg 89%
    22:00 -8°C° 0 mm 2 mps 760 mmHg 90%
    23:00 -10°C° 0 mm 3 mps 760 mmHg 91%

    26 February, Tuesday

    Time Temperature Precipitation Wind Pressure Humidity
    00:00 -10°C° 0 mm 3 mps 759 mmHg 91%
    01:00 -10°C° 0 mm 3 mps 759 mmHg 92%
    02:00 -10°C° 0 mm 3 mps 758 mmHg 92%
    03:00 -9°C° 0 mm 2 mps 758 mmHg 92%
    04:00 -9°C° 0 mm 2 mps 758 mmHg 92%
    05:00 -9°C° 0 mm 2 mps 758 mmHg 92%
    06:00 -8°C° 0 mm 2 mps 758 mmHg 92%
    07:00 -7°C° 0 mm 2 mps 758 mmHg 93%
    08:00 -7°C° 0 mm 2 mps 758 mmHg 93%
    09:00 -6°C° 0 mm 3 mps 757 mmHg 92%
    10:00 -5°C° 0 mm 3 mps 757 mmHg 91%
    11:00 -4°C° 0 mm 3 mps 757 mmHg 91%
    12:00 -3°C° 0 mm 4 mps 756 mmHg 88%
    13:00 -2°C° 0 mm 5 mps 756 mmHg 86%
    14:00 -2°C° 0 mm 5 mps 755 mmHg 84%
    15:00 -2°C° 0 mm 5 mps 755 mmHg 83%
    16:00 -2°C° 0 mm 4 mps 755 mmHg 81%
    17:00 -3°C° 0 mm 4 mps 755 mmHg 80%
    18:00 -3°C° 0 mm 4 mps 755 mmHg 82%
    19:00 -3°C° 0 mm 4 mps 755 mmHg 83%
    20:00 -3°C° 0 mm 4 mps 754 mmHg 84%
    21:00 -3°C° 0 mm 4 mps 754 mmHg 86%
    22:00 -3°C° 0 mm 4 mps 753 mmHg 88%
    23:00 -3°C° 0 mm 4 mps 753 mmHg 90%
    Show more